ECHOSTAR 15

Last updated on Tue Oct 14 2025 00:02:46 GMT+0000 (Coordinated Universal Time)

1 36792U 10034A 25286.60671865 -.00000013 00000+0 00000+0 0 9990 2 36792 0.0298 77.1683 0002266 104.0542 300.8151 1.00270658 55852
UTC large
Height (km)
Speed (km/s)
/
Latitude / Longitude
Inclination (degrees)
Orbital Period (minutes)
Azimuth
Elevation
Range (km)
Doppler Factor

Next 0 passes for location: London (51.5072 / 0.1276)

Sorry there are no passes over London.